Regional Weather Roundup
Issued by NWS Northern Indiana

Home | Current Version | Previous Version | Text Only | Print | Product List | Glossary On
Versions: 1 2 3 4 5 6 7 8 9 10 11 12 13 14 15 16 17 18 19 20 21 22 23 24 25 26 27 28 29 30 31 32 33 34 35 36 37 38 39 40 41 42 43 44 45 46 47 48 49 50
000
ASUS43 KIWX 280910
RWRIWX

KIWX WEATHER ROUNDUP
NATIONAL WEATHER SERVICE NORTHERN INDIANA
400 AM EST WED JAN 28 2015

NOTE: "FAIR" INDICATES FEW OR NO CLOUDS BELOW 12,000 FEET WITH NO
SIGNIFICANT WEATHER AND/OR OBSTRUCTIONS TO VISIBILITY.

* THESE STATIONS ARE NOT UNDER NWS QUALITY CONTROL. THEY ALSO MAY NOT
  REPORT WEATHER SUCH AS PRECIPITATION OR FOG.

INZ001>027-281000-
NORTHERN INDIANA

CITY           SKY/WX    TMP DP  RH WIND       PRES   REMARKS
GARY*          PTCLDY    22  14  72 CALM      30.30R
VALPARAISO     MOCLDY    18  13  80 CALM      30.29R
MICHIGAN CITY* PTCLDY    18  12  79 CALM      30.30R
LAPORTE*       PTCLDY    16  12  86 CALM      30.29R
KNOX*          FAIR      15   7  69 CALM      30.28S
SOUTH BEND     NOT AVBL
GOSHEN         MOCLDY    11   6  81 E3        30.29R
MONTICELLO*    CLEAR     17  15  95 CALM      30.27F
LOGANSPORT*    PTCLDY    10   9  92 SE3       30.29S
ROCHESTER*     PTCLDY    14  12  92 CALM      30.29S
WARSAW*        PTCLDY    10   9  92 CALM      30.29R
ANGOLA*        CLEAR      7   3  85 CALM      30.26R
FORT WAYNE     PTCLDY     7   4  87 W3        30.30R
HUNTINGTON*    PTCLDY     8   2  77 CALM      30.29S
PERU/GRISSOM   MOCLDY    12   8  85 E3        30.28R
MARION*        PTCLDY    12   9  89 CALM      30.30R

$$
INZ028>050-281000-
CENTRAL INDIANA

CITY           SKY/WX    TMP DP  RH WIND       PRES   REMARKS
LAFAYETTE      PTCLDY    16  13  88 CALM      30.29S
KOKOMO*        PTCLDY    12   9  85 CALM      30.29R
MUNCIE*        PTCLDY    11   7  84 CALM      30.28R FOG
INDIANAPOLIS   CLEAR     17  13  84 CALM      30.28R

$$
MIZ043>046-050>051-056>058-064>065-071>073-077>080-281000-
SOUTHWEST LOWER MICHIGAN

CITY           SKY/WX    TMP DP  RH WIND       PRES   REMARKS
BATTLE CREEK   CLEAR     11   5  77 CALM      30.28R
BENTON HARBOR  PTCLDY    12  10  92 CALM      30.29R
COLDWATER*     PTCLDY     8   5  88 CALM      30.28R
HILLSDALE*     MOCLDY     6   3  87 CALM      30.25R
HOLLAND        PTCLDY    15  10  80 CALM      30.28S
GRAND RAPIDS   PTCLDY    11   7  84 CALM      30.28R
KALAMAZOO      PTCLDY     9   5  84 CALM      30.28R
STURGIS*       MOCLDY     9   7  92 CALM      30.27R
THREE RIVERS*  FAIR      10   7  87 CALM      30.29R

$$
OHZ001>008-015>018-024>025-281000-
NORTHWEST OHIO

CITY           SKY/WX    TMP DP  RH WIND       PRES   REMARKS
WAUSEON*       FAIR       7   3  85 W7        30.28R WCI  -5
DEFIANCE       PTCLDY     5   0  79 CALM      30.30R
FINDLAY        PTCLDY     4   1  88 SW3       30.26R
TOLEDO EXPRESS PTCLDY     6   3  87 CALM      30.27R
TOLEDO METCALF PTCLDY    12   5  73 W3        30.28R
LIMA           PTCLDY     4  -1  80 S3        30.26R HAZE

$$
AND FOR LAKE MICHIGAN COASTAL AND OPEN LAKE BUOY OBSERVATIONS

STATION/POSITION TEMP    WIND        PRES    VSBY  WAVE
                 AIR SEA DIR/SP/G                  HT/PER
                 (F)     (DEG/KT/KT) (MB)    (MI)  (FT/S)
CALUMET HARBOR    25     170/  4/  6   N/A
MICHIGAN CITY     22     130/  5/  6   N/A
SAINT JOSEPH      20     120/  3/  6 1025.7F

$$
&&



USA.gov is the U.S. government's official web portal to all federal, state and local government web resources and services.